Louisville, KY

7:19 AM EDT on May 26, 2017 (GMT -0400)
Louisville International-Standiford

Weather History for KSDF - January, 2011

Change the Weather History Date:

Monday, January 3, 2011

  Actual Average Record
Temperature  
Mean Temperature 31 °F 35 °F  
Max Temperature 43 °F 43 °F 70 °F (1997)
Min Temperature 19 °F 27 °F -10 °F (1879)
Degree Days  
Heating Degree Days 34 30  
Month to date heating degree days 90 90  
Since 1 July heating degree days 1710 1666  
Cooling Degree Days 0 0  
Month to date cooling degree days 0 0  
Year to date cooling degree days 0 0  
Moisture  
Dew Point 14 °F    
Average Humidity 53    
Maximum Humidity 77    
Minimum Humidity 29    
Precipitation  
Precipitation 0.00 in 0.10 in 3.41 in (2000)
Month to date precipitation 0.52 0.32  
Year to date precipitation 0.52 0.32  
Snow  
Snow 0.00 in 0.10 in 5.00 in (1942)
Month to date snowfall 0.0 0.3  
Since 1 July snowfall 6.3 3.1  
Snow Depth 0.00 in    
Sea Level Pressure  
Sea Level Pressure 30.26 in    
Wind  
Wind Speed 6 mph (South)    
Max Wind Speed 16 mph    
Max Gust Speed 20 mph    
Visibility 10 miles    
Events      
T = Trace of Precipitation, MM = Missing Value Source: NWS Daily Summary

Daily Weather History Graph

Daily Weather History Graph

Search for Another Location

Airport or City:

Trip Planner

Search our weather history database for the weather conditions in past years. The results will help you decide how hot, cold, wet, or windy it might be!

Date:

Astronomy

Jan. 03, 2011 Rise Set
Actual Time 7:59 AM EST 5:35 PM EST
Civil Twilight 7:30 AM EST 6:04 PM EST
Nautical Twilight 6:57 AM EST 6:37 PM EST
Astronomical Twilight 6:25 AM EST 7:09 PM EST
Moon 7:23 AM EST (1/3) 5:06 PM EST (1/3)
Length of Visible Light 10h 34m
Length of Day
9h 35m
Waning Crescent, 0% of the Moon is Illuminated
Jan 3
Waning Crescent
Jan 4
New
Jan 12
First Quarter
Jan 19
Full
Jan 26
Last Quarter

Hourly Weather History & Observations

Time (EST) Temp. Windchill Dew Point Humidity Pressure Visibility Wind Dir Wind Speed Gust Speed Precip Events Conditions
12:56 AM 24.1 °F - 14.0 °F 65% 30.33 in 10.0 mi Calm Calm - N/A   Clear
1:56 AM 21.9 °F 15.7 °F 15.1 °F 75% 30.32 in 10.0 mi SE 4.6 mph - N/A   Clear
2:56 AM 21.0 °F 14.6 °F 15.1 °F 78% 30.31 in 10.0 mi SSE 4.6 mph - N/A   Clear
3:56 AM 21.9 °F - 15.1 °F 75% 30.34 in 10.0 mi Calm Calm - N/A   Clear
4:56 AM 21.0 °F - 15.1 °F 78% 30.34 in 10.0 mi Calm Calm - N/A   Clear
5:56 AM 19.9 °F 13.4 °F 14.0 °F 78% 30.33 in 10.0 mi SSE 4.6 mph - N/A   Clear
6:56 AM 19.9 °F 12.1 °F 14.0 °F 78% 30.32 in 10.0 mi SSE 5.8 mph - N/A   Clear
7:56 AM 19.4 °F 11.5 °F 14.0 °F 80% 30.33 in 10.0 mi SE 5.8 mph - N/A   Scattered Clouds
8:56 AM 23.0 °F 17.0 °F 16.0 °F 74% 30.33 in 10.0 mi SSE 4.6 mph - N/A   Partly Cloudy
9:56 AM 27.0 °F 21.6 °F 18.0 °F 69% 30.34 in 10.0 mi SSE 4.6 mph - N/A   Partly Cloudy
10:56 AM 32.0 °F 27.5 °F 18.0 °F 56% 30.34 in 10.0 mi South 4.6 mph - N/A   Partly Cloudy
11:56 AM 37.0 °F 31.0 °F 14.0 °F 39% 30.32 in 10.0 mi SW 8.1 mph - N/A   Partly Cloudy
12:56 PM 39.9 °F 33.9 °F 14.0 °F 35% 30.27 in 10.0 mi South 9.2 mph - N/A   Partly Cloudy
1:56 PM 42.1 °F 35.7 °F 12.9 °F 31% 30.24 in 10.0 mi SSW 11.5 mph - N/A   Partly Cloudy
2:56 PM 42.1 °F 35.7 °F 12.0 °F 29% 30.22 in 10.0 mi SW 11.5 mph - N/A   Partly Cloudy
3:56 PM 42.1 °F 36.1 °F 12.0 °F 29% 30.20 in 10.0 mi SW 10.4 mph - N/A   Partly Cloudy
4:56 PM 41.0 °F 36.4 °F 12.0 °F 31% 30.20 in 10.0 mi South 6.9 mph - N/A   Scattered Clouds
5:56 PM 37.9 °F 33.5 °F 12.9 °F 36% 30.18 in 10.0 mi South 5.8 mph - N/A   Scattered Clouds
6:56 PM 37.0 °F 32.4 °F 12.9 °F 37% 30.17 in 10.0 mi South 5.8 mph - N/A   Partly Cloudy
7:56 PM 33.1 °F 26.9 °F 14.0 °F 46% 30.17 in 10.0 mi South 6.9 mph - N/A   Clear
8:56 PM 35.1 °F 28.6 °F 15.1 °F 44% 30.15 in 10.0 mi South 8.1 mph - N/A   Clear
9:56 PM 32.0 °F 27.5 °F 15.1 °F 50% 30.14 in 10.0 mi SE 4.6 mph - N/A   Clear
10:56 PM 30.9 °F 26.2 °F 15.1 °F 52% 30.13 in 10.0 mi ESE 4.6 mph - N/A   Clear
11:56 PM 30.0 °F 24.1 °F 16.0 °F 56% 30.11 in 10.0 mi ESE 5.8 mph - N/A   Clear